Location: Castelbiague
(43.0361°N, 0.9246°E)
Time: 09:44:10
(UTC+00:00)

Cosmos 1726 - Pass Details

Date: 17 June 2021
Orbit: 480 x 495 km, 82.5° (Epoch: 01 August)

Event Time Altitude Azimuth Distance (km) Brightness Sun altitude
Rises 20:13:26 0° 355° (N) 2,551 6.5 -6.0°
Reaches altitude 10° 20:15:35 10° 0° (N) 1,667 5.4 -6.3°
Maximum altitude 20:19:10 56° 80° (E) 578 2.2 -6.8°
Drops below altitude 10° 20:22:44 10° 159° (SSE) 1,657 4.2 -7.3°
Enters shadow 20:23:25 - 161° (SSE) 1,942 4.6 -7.4°
